954  
NZUS93 KARX 250810  
HRRWXR  
 
CURRENT HOURLY OBSERVATIONS ACROSS  
MUCH OF THE UPPER MISSISSIPPI VALLEY  
NATIONAL WEATHER SERVICE LA CROSSE WI  
300 AM CDT SUN SEP 25 2016  
 
   
..SOUTHEAST MINNESOTA
 
 
 
CITY SKY/WX TMP DP RH WIND PRES REMARKS  
ROCHESTER RAIN 67 66 97 SE14G21 29.97F FOG  
ROCHESTER/MAYO N/A 67 67 100 SE12G24 29.97F  
WINONA CLOUDY 64 61 88 SE7 30.01F  
AUSTIN RAIN 66 64 94 SE6 29.97S  
ALBERT LEA CLOUDY 66 66 100 S9 29.97R  
DODGE CENTER DRIZZLE 66 64 94 S8 29.97F  
PRESTON TSTM 65 63 91 SE15G23 30.00F  
OWATONNA LGT RAIN 70 64 83 S12 29.96F  
FARIBAULT LGT RAIN 68 66 94 SE7 29.95F  

 
   
..ELSEWHERE IN MINNESOTA
 
 
 
CITY SKY/WX TMP DP RH WIND PRES REMARKS  
MINNEAPOLIS CLOUDY 68 65 90 SE12 29.93F  
INTNL FALLS CLOUDY 64 60 87 SE7 29.87F  
DULUTH LGT RAIN 61 59 93 SE7 29.97F  
RED WING CLOUDY 70 64 83 SE10 29.95F  
REDWOOD FALLS LGT RAIN 69 66 90 S10 29.88S  
MANKATO CLOUDY 68 66 93 S8 29.93F  
WORTHINGTON LGT RAIN 66 63 90 S6 29.93F  
FAIRMONT CLOUDY 67 65 93 S10 29.94F  

 
   
..SOUTHWEST WISCONSIN
 
 
 
CITY SKY/WX TMP DP RH WIND PRES REMARKS  
LA CROSSE PTCLDY 68 63 84 SE9 30.01F  
PRAIRIE DU CHI CLOUDY 66 62 87 SE7 30.02F  
BOSCOBEL CLOUDY 64 62 93 VRB3 30.05F FOG  
LONE ROCK CLOUDY 63 61 93 E7 30.07F  
PLATTEVILLE CLOUDY 64 64 100 E10 30.05F  
FORT MC COY CLOUDY 63 61 94 SE6 30.05F  
CAMP DOUGLAS CLOUDY 61 59 94 E8 30.06F  
MAUSTON-NEW LI CLOUDY 60 60 97 SE5 30.06F  
VIROQUA CLOUDY 63 63 100 SE9G16 30.05F  
WIS DELLS CLOUDY 63 60 90 SE6 30.07F  

 
   
..ELSEWHERE IN WISCONSIN
 
 
 
CITY SKY/WX TMP DP RH WIND PRES REMARKS  
MILWAUKEE CLEAR 66 62 87 SE7 30.11F  
MADISON CLOUDY 61 60 97 SE6 30.08F  
GREEN BAY CLOUDY 59 57 93 CALM 30.13F  
EAU CLAIRE CLOUDY 64 61 90 SE10 30.00F  
BLACK RVR FLS CLOUDY 64 64 100 SE5 30.04F FOG  
MEDFORD CLOUDY 57 57 100 SE9G16 30.07F  
WAUSAU PTCLDY 56 53 90 SE9 30.09F  
WIS RAPIDS MOCLDY 58 57 97 E6 30.10F  
MARSHFIELD PTCLDY 58 55 90 SE9 30.07F  
RICE LAKE CLOUDY 62 59 88 SE9G17 30.01F  

 
   
..NORTHEAST IOWA
 
 
 
CITY SKY/WX TMP DP RH WIND PRES REMARKS  
WATERLOO LGT RAIN 70 67 90 SE16 29.98S FOG  
DUBUQUE CLOUDY 65 63 93 SE16 30.03F  
DECORAH CLOUDY 64 64 100 SE7 30.01F FOG  
MASON CITY LGT RAIN 67 66 97 SE7 29.99F  
CHARLES CITY MOCLDY 68 68 100 SE8 29.99S FOG  
OELWEIN CLOUDY 68 66 94 SE8 30.02F FOG  

 
   
..ELSEWHERE IN IOWA
 
 
 
CITY SKY/WX TMP DP RH WIND PRES REMARKS  
DES MOINES LGT RAIN 70 68 93 S9 29.97R  
IOWA CITY CLOUDY 70 67 90 E6 30.02F  
FORT DODGE CLOUDY 66 64 94 S5 29.97F  
MARSHALLTOWN LGT RAIN 69 69 100 SE10 29.99S  
CEDAR RAPIDS CLOUDY 69 69 100 SW6 30.01S  

 
   
..NORTHERN ILLINOIS
 
 
 
CITY SKY/WX TMP DP RH WIND PRES REMARKS  
CHICAGO-OHARE CLEAR 65 62 90 SE8 30.10F  
CHICAGO-MIDWAY PTCLDY 68 60 75 SE7 30.11F  
MOLINE CLOUDY 67 64 90 E7 30.03F FOG  
ROCKFORD PTCLDY 65 62 90 SE6 30.10F  
PEORIA CLEAR 72 68 87 SE7 30.06F  

 
 
NOTE: "FAIR" INDICATES FEW OR NO CLOUDS BELOW 12,000 FEET WITH NO  
SIGNIFICANT WEATHER AND/OR OBSTRUCTIONS TO VISIBILITY. WIND  
SPEEDS ARE IN MILES-PER-HOUR.  
 
 
CLICK HERE TO GO TO PREVIOUS BULLETINS.

The Nexlab WI Page
The Nexlab IA Page
The Nexlab MN Page Main Text Page